SCP
1 1 0 0 0 0 0 0 0 0 0 0 0 0 0 0 0 0 0 1 1 1 1 1 1 1 1 1 1 1 1 1 1 1 1 1 1 1 2 2 2 2 2 2 2 2 2 2 2
1 0 0 0 0 0 0 0 0 0 0 0 0 0 0 0 0 0 0 1 1 1 1 1 1 1 1 1 1 1 1 0 1 1 1 1 1 1 1 1 1 2 2 2 2 2 2 2 2
0 0 0 0 0 0 0 0 0 0 0 0 0 0 0 0 0 0 0 1 1 1 1 1 1 1 1 1 1 1 1 1 1 1 1 1 1 1 1 1 1 1 2 2 2 2 2 2 2
0 0 0 0 0 0 0 0 0 0 0 0 0 0 1 1 1 1 0 1 1 1 1 1 1 1 1 1 1 1 1 1 1 1 1 1 1 1 1 1 1 1 2 2 1 2 2 2 2
0 0 0 0 0 0 0 0 0 0 0 0 0 0 1 1 1 1 1 1 1 1 1 1 1 1 1 1 1 1 1 1 1 1 1 1 1 1 1 1 1 1 1 1 1 2 2 2 2
0 0 0 0 0 0 1 1 0 1 0 0 0 1 1 1 1 1 1 1 1 1 2 1 1 1 1 1 1 1 1 1 1 1 1 1 1 1 1 1 1 1 1 2 2 2 2 1 1
0 0 0 0 0 0 1 1 1 0 0 0 0 1 1 1 1 1 0 1 1 1 1 1 1 1 1 1 1 1 1 1 1 1 1 1 1 1 1 1 1 1 1 2 2 2 1 1 1
0 0 0 0 0 0 0 0 0 0 0 0 1 1 1 2 1 1 0 0 1 1 1 1 1 1 1 1 1 1 1 1 1 1 1 1 1 1 1 1 1 1 1 2 2 1 1 1 1
0 0 0 0 0 0 0 0 0 0 0 1 1 1 2 2 1 1 1 0 0 1 1 1 1 1 1 1 1 1 1 1 1 1 1 1 1 1 1 1 1 1 1 1 1 1 1 1 1
0 0 0 0 0 0 0 1 1 0 1 1 1 1 2 2 2 1 1 0 0 1 1 1 1 1 1 1 1 1 1 1 1 1 1 1 1 1 1 1 1 1 1 1 1 1 1 1 1
0 0 0 0 0 0 1 1 0 0 1 1 1 1 1 2 2 2 1 1 0 0 1 1 1 1 2 1 2 2 2 1 1 1 1 1 1 1 1 1 1 1 1 1 1 1 1 1 1
0 0 0 0 0 0 0 1 0 0 1 1 1 1 1 2 2 2 1 1 0 1 1 1 1 2 2 2 2 2 2 2 1 1 1 1 1 1 1 1 1 1 1 0 0 0 0 0 0
0 0 0 0 0 0 0 1 1 1 1 1 1 1 1 1 2 1 1 1 1 1 1 1 1 2 2 2 2 2 2 2 1 1 2 2 2 1 1 1 1 1 1 0 0 0 0 0 0
0 0 0 0 0 0 0 1 1 1 1 1 1 1 1 1 1 1 1 1 1 1 1 1 1 1 2 2 2 2 2 2 2 2 2 2 2 2 1 1 1 1 1 0 0 0 0 0 0
0 0 0 0 0 0 0 1 1 1 1 1 1 1 1 1 1 1 1 1 1 1 1 1 1 1 2 2 2 2 2 2 2 2 1 1 1 1 1 1 1 1 1 0 0 0 0 0 0
0 0 0 0 0 0 0 0 1 1 1 1 1 1 1 1 1 1 1 1 1 1 1 1 1 1 1 2 2 2 2 2 2 2 2 1 1 1 1 1 1 1 1 0 0 0 0 0 0
0 0 0 0 0 0 0 0 0 1 1 1 1 1 1 1 1 1 1 1 1 1 1 1 1 1 2 2 2 2 2 2 2 2 2 1 1 1 1 1 1 1 1 1 0 0 0 0 0
0 0 0 0 0 0 0 0 0 0 1 1 1 1 1 1 1 1 1 1 1 1 1 1 1 2 2 3 3 3 3 3 3 3 2 2 1 1 1 1 2 1 1 1 0 0 0 0 0
0 0 0 0 0 0 0 0 0 0 1 1 1 1 1 1 1 1 1 1 1 1 1 1 1 2 3 4 4 4 3 3 3 3 2 2 2 1 1 2 2 2 1 1 0 0 0 0 0
0 0 0 0 0 0 0 0 0 0 0 0 1 1 1 1 1 1 1 1 1 1 1 1 1 2 3 4 5 4 3 3 3 2 2 2 2 2 2 2 2 2 2 1 1 0 0 0 0
0 0 0 0 0 0 0 0 0 0 0 0 1 1 1 1 1 1 1 1 1 1 1 1 1 1 2 3 4 4 4 3 3 2 2 2 2 2 2 2 2 2 1 1 1 0 0 0 0
0 0 0 0 0 0 0 0 0 0 0 0 0 1 1 1 2 1 1 1 1 1 1 1 1 1 1 3 3 4 3 3 2 2 2 2 1 1 1 1 1 1 1 1 0 0 0 0 0
0 0 0 0 0 0 0 0 0 0 0 0 0 1 2 2 2 2 1 1 1 1 1 1 1 1 1 2 2 3 3 2 2 2 2 1 1 1 1 1 1 1 1 1 1 0 0 0 0
0 0 0 0 0 0 0 0 0 0 0 0 0 1 1 2 2 2 2 2 2 2 1 1 1 1 1 2 2 2 2 2 2 2 2 1 1 1 1 1 1 1 1 1 1 1 0 0 0
0 0 0 0 0 0 0 0 0 0 0 0 0 1 1 1 2 2 2 2 2 2 1 1 1 1 1 2 2 2 2 2 2 2 2 2 1 1 1 0 1 1 1 1 1 0 0 0 0
0 0 0 0 0 0 0 0 0 0 0 0 0 0 1 1 1 1 2 2 2 1 1 1 1 1 1 2 2 2 2 2 2 2 2 2 1 1 1 0 0 1 1 1 0 0 0 0 0
0 0 0 0 0 0 0 0 0 0 0 0 0 0 1 1 1 1 1 1 1 1 1 1 1 1 2 2 2 2 2 2 2 2 2 1 1 1 1 0 0 0 0 1 0 0 0 0 0
0 0 0 0 0 0 0 0 0 0 0 0 0 0 1 1 1 1 1 1 1 1 1 1 1 1 2 2 3 3 3 2 2 2 1 1 1 1 1 0 0 0 0 0 0 0 0 0 0
0 0 0 0 0 0 0 0 0 0 0 0 0 0 1 1 1 2 2 1 1 1 1 1 1 1 1 2 3 3 3 3 2 2 2 1 1 1 1 0 0 0 0 0 0 0 0 0 0
1 0 0 0 0 0 0 0 0 0 0 0 0 0 0 1 1 2 2 2 1 1 1 1 0 0 1 2 3 3 3 3 3 2 2 2 1 1 1 0 0 0 0 0 0 0 0 1 1
Wind_Speed
2 2 3 3 3 3 6 5 4 5 4 5 5 4 5 7 6 6 4 3 4 4 4 6 7 8 8 9 9 9 10 10 10 10 9 9 10 10 10 10 9 8 9 8 8 9 9 8 8
1 1 3 3 2 4 6 5 5 6 6 5 5 5 6 7 6 6 4 3 3 4 5 7 7 8 9 9 9 10 10 10 10 10 10 10 10 10 10 10 9 8 8 9 9 9 9 8 8
2 2 2 1 2 4 6 6 7 7 5 3 4 5 5 6 5 4 4 4 4 5 5 8 7 8 9 10 10 10 10 11 11 11 11 11 11 11 10 10 10 8 9 9 9 8 9 9 9
2 2 1 2 7 6 6 6 6 6 4 3 4 6 6 5 3 5 5 4 5 5 6 8 7 8 9 10 10 10 11 11 11 11 11 11 11 10 11 10 10 9 9 9 9 9 10 10 9
2 2 3 5 6 6 5 4 3 4 4 4 4 6 7 5 5 6 6 4 5 6 6 7 8 8 9 10 10 11 11 12 12 11 11 11 11 11 10 10 10 9 10 10 10 10 10 10 9
2 2 3 5 7 5 4 3 3 4 5 4 4 6 7 6 6 6 5 5 5 5 5 6 8 8 9 10 10 11 11 11 12 12 12 12 11 11 10 10 9 9 9 10 11 11 11 10 10
1 1 3 6 6 5 4 3 3 4 4 4 3 5 7 7 6 6 5 5 5 5 5 5 6 7 8 9 10 10 11 11 11 12 11 11 11 11 11 11 11 10 10 11 11 11 11 10 10
1 2 5 5 5 5 4 3 2 2 4 4 1 3 6 7 7 6 5 5 5 5 5 5 5 5 6 7 9 9 10 10 10 10 10 9 10 11 11 11 12 12 13 12 11 11 10 10 10
2 3 4 4 4 5 5 4 3 2 5 4 3 4 7 10 8 6 5 5 4 4 4 4 4 5 5 6 7 7 7 7 6 7 7 5 6 8 8 13 13 13 13 13 11 11 10 8 10
1 2 3 3 3 4 4 3 3 4 5 5 6 7 9 8 7 5 4 4 4 4 4 3 4 4 4 4 4 3 4 4 4 5 6 5 6 6 7 10 11 11 11 12 11 9 6 4 5
2 3 4 3 3 4 4 3 2 3 2 3 5 8 9 7 6 4 4 3 3 3 3 3 3 3 3 3 3 2 3 3 4 5 6 5 5 4 5 4 5 6 7 7 7 5 5 6 5
4 4 3 3 3 3 3 3 2 0 1 3 5 7 8 7 6 4 3 3 2 2 2 2 2 3 3 3 3 2 3 3 3 4 5 4 4 4 5 4 5 5 4 5 5 4 6 7 7
4 3 3 3 4 3 3 3 2 1 2 4 6 7 7 6 5 4 3 3 2 2 2 2 2 2 2 3 2 2 3 3 4 3 4 5 4 4 4 4 4 5 4 4 4 5 6 6 7
4 4 3 3 3 3 3 2 2 2 3 6 7 7 7 5 4 3 3 3 2 2 2 3 2 2 2 2 2 2 3 3 3 3 3 4 4 4 4 5 5 4 4 4 4 6 5 5 5
6 5 4 3 2 2 3 2 2 2 4 6 6 6 6 5 4 4 3 2 2 2 2 3 2 2 2 2 2 2 2 3 3 3 3 3 4 4 4 4 4 4 4 4 4 6 5 5 5
5 5 4 3 1 2 4 2 2 3 5 5 5 6 5 4 4 4 3 2 2 2 3 3 2 2 2 2 2 2 3 3 3 2 2 3 3 4 3 3 3 3 4 3 3 3 4 4 4
5 4 3 2 2 2 4 2 2 4 5 6 6 6 6 5 4 4 3 2 2 2 3 3 3 2 3 3 2 3 3 3 2 2 2 2 3 3 3 3 2 3 3 3 3 4 3 4 4
4 3 3 2 1 3 4 4 3 5 6 7 7 7 6 5 5 4 3 3 3 3 3 4 3 3 3 3 3 3 3 3 2 2 2 2 2 3 3 2 3 3 3 3 3 4 3 3 3
3 4 3 2 1 4 5 5 4 5 7 8 8 7 7 6 5 3 3 3 4 4 4 4 4 3 3 2 2 3 3 2 2 1 2 2 2 2 2 1 3 2 2 2 3 3 3 3 2
5 5 3 1 1 4 5 7 5 5 6 7 8 7 7 7 6 5 4 5 5 4 4 4 4 4 3 2 2 2 2 2 2 1 1 1 2 2 2 2 2 2 2 2 2 2 1 2 1
5 5 3 3 2 5 5 6 5 4 5 5 6 7 7 6 6 6 5 6 5 5 5 4 4 4 4 4 3 3 3 2 2 2 1 1 1 2 2 2 2 2 2 2 2 1 1 1 1
4 3 4 4 5 3 5 5 4 5 5 6 6 6 6 6 6 5 5 6 6 5 5 5 5 5 4 5 4 4 3 2 2 1 2 2 2 1 1 1 2 2 1 1 1 1 1 1 1
1 1 4 6 6 6 6 7 3 5 6 6 5 5 5 6 6 6 6 6 5 5 5 4 4 4 5 5 4 4 3 2 2 2 2 2 2 1 1 1 1 1 1 1 1 1 1 1 1
3 3 4 5 6 7 4 6 4 3 4 4 4 5 5 5 5 5 5 5 5 5 5 5 4 4 4 5 5 4 3 3 3 2 2 2 2 1 2 1 1 1 1 1 1 1 2 2 1
5 5 4 5 6 4 2 6 5 0 2 3 4 4 4 4 5 5 5 6 6 6 5 5 6 5 5 5 5 4 4 4 3 3 2 2 2 2 2 2 2 1 1 2 2 2 2 2 2
5 7 5 4 4 3 3 7 2 0 1 2 3 3 3 4 4 5 5 6 6 6 6 6 6 5 5 6 5 5 4 3 2 3 2 2 2 2 2 2 2 2 2 2 2 2 2 2 3
5 6 5 6 5 6 5 4 3 3 3 3 2 2 3 4 4 4 5 5 6 6 6 6 6 5 6 5 5 5 4 4 3 3 2 2 2 1 2 2 2 2 2 2 2 2 3 2 3
4 3 5 6 5 6 5 6 3 2 3 3 3 3 3 3 4 4 4 4 5 5 5 6 6 5 5 5 4 4 4 4 3 2 2 2 2 2 3 3 2 2 2 2 2 2 2 3 2
5 6 6 5 6 6 5 2 1 2 3 4 3 3 3 3 4 4 3 4 4 5 5 5 5 5 4 4 4 4 4 3 3 2 2 2 2 3 3 3 3 2 2 2 2 2 3 3 3
6 7 8 7 7 7 7 3 3 2 3 4 3 2 2 2 3 3 3 3 4 4 4 4 4 5 4 4 4 4 4 3 3 3 2 2 2 3 3 3 3 3 3 3 3 3 3 3 3
Wind_Direction
219 225 234 241 215 119 90 89 97 105 91 73 67 65 68 48 31 64 81 66 54 60 58 69 45 49 53 56 58 57 55 56 56 58 60 63 66 66 69 73 82 94 101 102 102 104 105 103 100
267 247 240 248 223 122 96 96 101 85 96 102 82 80 81 72 58 83 98 76 67 65 61 60 52 49 53 56 57 56 58 58 59 59 61 63 66 66 66 70 77 90 95 96 98 100 102 100 98
211 249 270 232 89 86 102 101 99 97 101 110 96 65 56 68 79 87 93 106 84 70 64 64 47 49 53 55 58 59 59 61 61 60 61 63 64 65 65 68 70 81 90 91 92 93 94 94 92
237 211 205 116 98 77 96 111 117 120 107 92 111 95 81 58 69 94 109 105 88 76 68 69 50 54 55 56 56 59 59 61 62 62 64 65 64 64 66 66 66 75 86 88 87 86 86 86 86
242 233 144 118 100 94 94 103 132 127 113 105 108 99 93 80 89 107 112 99 82 75 69 70 58 57 58 59 59 60 62 62 64 63 64 64 65 64 64 63 64 70 81 85 84 83 83 82 81
212 215 156 131 117 113 108 111 133 115 114 116 109 107 95 106 113 110 105 93 80 73 72 78 79 67 63 63 62 62 63 65 64 64 63 64 64 63 63 61 62 71 83 84 83 84 83 83 80
231 146 129 129 130 126 112 111 118 113 114 102 108 112 116 126 116 115 108 95 81 71 69 73 83 89 82 69 66 65 66 68 66 66 65 65 63 61 59 57 58 72 84 88 86 86 85 84 82
316 149 137 140 143 124 120 120 94 82 95 95 120 118 127 135 132 126 115 102 89 77 70 69 74 75 82 84 73 67 67 69 68 67 65 66 71 67 60 58 59 70 81 86 84 85 86 84 81
248 176 145 140 144 128 138 138 107 98 118 112 80 68 106 130 141 136 127 115 99 82 72 73 72 77 78 80 84 84 78 74 81 79 72 66 65 65 64 56 58 66 74 78 79 80 84 90 91
207 150 119 106 123 129 141 131 129 150 135 126 115 108 122 138 148 144 135 120 106 93 83 76 77 78 79 80 85 76 76 76 69 70 73 67 64 60 60 69 63 65 73 80 75 78 92 88 88
97 110 113 119 119 132 140 128 142 169 153 152 147 141 142 149 152 149 136 118 101 96 91 83 86 83 82 85 77 73 71 68 66 66 73 69 68 68 61 67 74 70 70 70 79 81 67 69 69
111 98 108 119 124 144 144 143 144 191 67 99 137 144 151 161 159 156 143 125 114 108 109 101 95 91 87 85 80 77 78 71 68 67 71 69 65 60 61 63 60 59 60 60 58 58 66 66 68
122 115 104 110 122 125 127 138 140 126 97 123 137 148 159 164 162 160 158 143 136 127 138 122 116 102 99 91 83 82 79 77 80 74 68 70 66 64 66 70 66 61 61 64 61 64 67 65 62
119 124 125 132 144 159 156 169 198 165 142 146 153 160 165 170 174 173 177 169 157 148 144 137 139 122 123 119 112 96 94 97 84 83 77 76 74 66 66 71 71 66 61 60 62 67 68 66 63
143 141 141 134 153 161 183 182 201 162 160 160 167 168 170 177 189 201 195 186 172 155 146 142 150 147 143 126 116 113 110 106 96 87 82 83 80 74 74 71 74 72 70 68 66 71 70 71 72
170 173 159 135 171 181 225 210 149 162 182 178 181 177 183 193 208 213 207 202 184 172 153 143 157 166 145 139 140 131 120 110 100 91 79 75 76 72 77 77 78 79 78 75 77 80 78 76 71
186 189 168 162 190 209 230 234 162 183 199 199 197 195 197 199 209 209 204 197 187 179 166 156 154 160 149 139 136 127 119 114 110 100 86 75 70 73 84 78 81 86 83 80 79 78 77 78 76
193 205 208 207 190 229 237 246 222 206 214 215 208 206 204 211 212 199 192 186 185 181 175 163 157 163 149 151 145 134 126 121 114 104 97 85 78 81 84 95 93 90 90 87 87 87 79 76 79
228 227 236 256 228 249 252 259 249 226 222 221 214 210 212 213 209 196 196 187 186 186 186 174 173 165 159 158 165 156 146 134 125 115 110 110 99 92 91 96 101 102 101 99 99 102 99 88 89
219 226 237 230 175 252 262 264 253 229 229 229 221 215 218 214 206 194 197 192 194 187 193 185 179 173 168 165 162 150 140 135 120 124 119 114 118 109 117 121 119 123 117 116 104 104 105 90 79
229 237 249 262 252 223 255 244 217 204 217 222 225 225 224 221 217 203 200 196 191 192 191 188 181 176 172 166 158 150 143 149 149 147 142 142 137 130 125 122 128 128 133 129 130 136 128 114 98
240 241 237 240 244 231 248 264 225 209 210 208 215 215 221 219 221 212 202 196 189 188 187 189 183 180 174 170 171 168 168 163 163 158 149 161 153 150 145 145 159 153 133 126 156 160 201 238 164
268 241 231 240 252 252 230 257 226 191 214 209 209 214 219 218 215 210 202 194 186 178 181 188 184 183 180 176 173 189 187 175 168 164 159 169 152 159 167 174 186 175 164 152 157 212 245 248 264
169 192 205 221 239 243 229 251 251 194 227 225 216 214 212 210 206 203 193 185 176 170 175 182 187 185 184 183 185 195 191 189 183 187 184 188 171 176 178 189 197 195 188 175 200 220 232 257 259
215 236 232 217 218 236 183 249 256 268 251 252 245 224 213 205 201 190 185 184 177 175 175 181 186 186 186 189 191 195 201 203 203 204 205 212 197 190 188 197 205 201 203 199 207 219 228 229 234
227 243 258 265 261 267 224 245 250 22 271 237 236 223 203 197 194 189 188 187 179 182 181 183 185 186 185 190 192 193 196 205 207 220 229 227 229 213 198 202 202 201 200 207 200 224 230 235 226
224 229 268 279 276 261 232 242 246 211 225 217 216 219 207 195 193 190 189 191 184 187 189 188 187 187 187 192 193 191 193 199 201 207 219 229 230 219 206 203 202 200 201 210 203 216 224 233 232
268 219 215 239 260 258 249 249 251 227 243 245 247 242 221 198 192 190 193 195 189 187 191 190 189 190 190 192 194 192 196 196 199 196 199 208 208 200 200 205 207 201 205 209 209 218 226 226 228
201 210 226 235 259 272 271 251 17 310 298 270 252 243 224 205 193 183 184 189 187 183 187 191 190 189 186 192 192 191 190 192 190 194 203 202 193 198 205 204 212 212 212 209 206 220 218 224 223
252 241 231 242 238 249 272 278 75 329 312 291 270 239 218 202 188 178 173 177 179 179 189 198 194 192 188 191 192 191 186 186 191 195 200 200 197 204 213 209 215 219 219 213 214 224 230 234 232